FW5697 Weather Reports


Display with metric or nautical units.
time (UTC)temp
F
wind
direction
speed
MPH
gust
MPH
rain 1hr
in
rain 24hr
in
rain mn
in
humidity
%
barometer
mb
20260906020036 70 0 0.0 1.0 0.00 0.71 0.71 96 1013.1
20260906014543 70 0 0.0 1.0 0.01 0.71 0.71 96 1013.0
20260906013034 69 0 0.0 2.0 0.11 0.71 0.71 95 1013.1
20260906011544 69 5 0.0 3.0 0.51 0.71 0.71 95 1012.8
20260906010036 69 0 0.0 4.0 0.71 0.71 0.71 94 1012.2
20260906004535 69 193 1.0 4.0 0.70 0.70 0.70 94 1012.8
20260906003036 69 211 0.0 6.0 0.58 0.58 0.58 91 1012.6
20260906001534 72 38 5.0 22.0 0.18 0.18 0.18 81 1014.1
20260906000038 87 109 1.0 4.0 0.00 0.00 0.00 62 1013.0
20260905234545 88 65 0.0 4.0 0.00 0.00 0.00 70 1011.6
20260905233034 89 194 2.0 6.0 0.00 0.00 0.00 68 1010.3
20260905231535 90 227 1.0 6.0 0.00 0.00 0.00 66 1010.5
20260905230042 91 185 2.0 6.0 0.00 0.00 0.00 66 1010.8
20260905224536 91 208 2.0 7.0 0.00 0.00 0.00 65 1010.6
20260905223036 92 207 1.0 4.0 0.00 0.00 0.00 63 1010.6
20260905221533 93 219 1.0 6.0 0.00 0.00 0.00 59 1010.7
20260905220035 98 183 2.0 4.0 0.00 0.00 0.00 50 1010.3
20260905214538 100 0 0.0 3.0 0.00 0.00 0.00 45 1010.1
20260905213037 100 0 0.0 3.0 0.00 0.00 0.00 42 1010.1
20260905211535 100 200 1.0 2.0 0.00 0.00 0.00 41 1010.2
20260905210034 100 0 0.0 2.0 0.00 0.00 0.00 43 1010.5
20260905204533 100 0 0.0 3.0 0.00 0.00 0.00 42 1010.6
20260905203031 100 271 0.0 5.0 0.00 0.00 0.00 43 1010.8
20260905201538 100 5 0.0 3.0 0.00 0.00 0.00 43 1011.0
20260905200046 99 190 1.0 4.0 0.00 0.00 0.00 44 1011.2
20260905194533 98 197 0.0 4.0 0.00 0.00 0.00 47 1011.6
20260905193035 99 273 1.0 4.0 0.00 0.00 0.00 46 1011.8
20260905191538 97 340 1.0 3.0 0.00 0.00 0.00 48 1012.0
20260905190045 97 159 1.0 3.0 0.00 0.00 0.00 48 1011.8
20260905184550 96 0 0.0 3.0 0.00 0.00 0.00 50 1012.0
20260905183042 96 0 0.0 3.0 0.00 0.00 0.00 52 1012.3
20260905181540 96 0 0.0 3.0 0.00 0.00 0.00 48 1012.8
20260905180034 96 252 0.0 3.0 0.00 0.00 0.00 53 1012.7
20260905174535 94 355 1.0 3.0 0.00 0.00 0.00 51 1012.8
20260905173035 94 0 0.0 5.0 0.00 0.00 0.00 53 1013.1
20260905171538 93 182 0.0 5.0 0.00 0.00 0.00 57 1013.3
20260905170032 92 325 1.0 3.0 0.00 0.00 0.00 57 1013.5
20260905164538 91 0 1.0 6.0 0.00 0.00 0.00 57 1013.7
20260905163035 91 0 0.0 3.0 0.00 0.00 0.00 59 1013.9
20260905161536 90 56 1.0 4.0 0.00 0.00 0.00 59 1014.1
20260905160036 90 0 0.0 4.0 0.00 0.00 0.00 61 1014.1
20260905154537 89 0 1.0 4.0 0.00 0.00 0.00 62 1014.1
20260905153050 88 333 1.0 6.0 0.00 0.00 0.00 66 1014.2
20260905151539 87 0 0.0 0.0 0.00 0.00 0.00 68 1014.3
20260905150039 86 0 0.0 0.0 0.00 0.00 0.00 71 1014.4
20260905144534 85 0 0.0 4.0 0.00 0.00 0.00 73 1014.4
20260905143038 84 0 0.0 0.0 0.00 0.00 0.00 75 1014.6
20260905141534 83 0 0.0 0.0 0.00 0.00 0.00 81 1014.6
20260905140036 81 0 0.0 0.0 0.00 0.00 0.00 83 1014.5
20260905134534 80 0 0.0 0.0 0.00 0.00 0.00 87 1014.7
20260905133035 78 0 0.0 0.0 0.00 0.00 0.00 93 1014.6
20260905131551 76 0 0.0 0.0 0.00 0.00 0.00 95 1014.8
20260905130040 75 0 0.0 0.0 0.00 0.00 0.00 97 1014.8
20260905124536 74 0 0.0 0.0 0.00 0.00 0.00 97 1014.8
20260905123037 73 0 0.0 0.0 0.00 0.00 0.00 97 1014.9
20260905121537 73 0 0.0 0.0 0.00 0.00 0.00 97 1014.6
20260905120039 72 0 0.0 0.0 0.00 0.00 0.00 97 1014.6
20260905114536 72 0 0.0 0.0 0.00 0.00 0.00 97 1014.7
20260905113035 72 0 0.0 0.0 0.00 0.00 0.00 96 1014.6
20260905111557 72 0 0.0 0.0 0.00 0.00 0.00 96 1014.4
20260905110035 72 0 0.0 0.0 0.00 0.00 0.00 96 1014.3
20260905104536 72 0 0.0 0.0 0.00 0.00 0.00 96 1014.1
20260905103034 72 0 0.0 0.0 0.00 0.00 0.00 96 1014.0
20260905101535 72 0 0.0 0.0 0.00 0.00 0.00 96 1014.1
20260905100036 72 0 0.0 0.0 0.00 0.00 0.00 96 1014.1
20260905094536 73 0 0.0 0.0 0.00 0.00 0.00 96 1014.0
20260905093036 73 0 0.0 0.0 0.00 0.00 0.00 96 1014.0
20260905091534 73 0 0.0 0.0 0.00 0.00 0.00 96 1014.0
20260905090035 73 0 0.0 0.0 0.00 0.00 0.00 95 1014.0
20260905084536 73 0 0.0 0.0 0.00 0.00 0.00 95 1014.0
20260905083032 73 0 0.0 0.0 0.00 0.00 0.00 95 1013.9
20260905081534 74 0 0.0 0.0 0.00 0.00 0.00 95 1014.0
20260905080035 74 0 0.0 0.0 0.00 0.00 0.00 94 1013.9
20260905074533 74 0 0.0 0.0 0.00 0.00 0.00 94 1013.8
20260905073053 74 0 0.0 0.0 0.00 0.00 0.00 94 1013.8
20260905071542 75 0 0.0 0.0 0.00 0.00 0.00 93 1013.6
20260905070037 75 0 0.0 0.0 0.00 0.00 0.00 94 1013.5
20260905064536 75 0 0.0 0.0 0.00 0.00 0.00 93 1013.8
20260905063036 75 0 0.0 0.0 0.00 0.00 0.00 92 1014.1
20260905061537 75 0 0.0 0.0 0.00 0.00 0.00 92 1014.2
20260905060037 76 0 0.0 0.0 0.00 0.00 0.00 92 1014.3
20260905054542 76 0 0.0 0.0 0.00 0.00 0.00 91 1014.6
20260905053040 76 0 0.0 0.0 0.00 0.00 0.00 90 1014.6
20260905051535 77 0 0.0 0.0 0.00 0.00 0.00 90 1014.6
20260905050031 77 0 0.0 0.0 0.00 0.00 0.00 90 1014.6
20260905044533 76 0 0.0 0.0 0.00 0.00 0.00 90 1014.7
20260905043035 76 0 0.0 0.0 0.00 0.00 0.00 90 1014.7
20260905041533 77 0 0.0 0.0 0.00 0.00 0.00 88 1014.7
20260905040037 77 0 0.0 0.0 0.00 0.00 0.00 88 1014.7
20260905034535 77 0 0.0 0.0 0.00 0.00 0.00 86 1014.9
20260905033048 77 0 0.0 0.0 0.00 0.00 0.00 85 1014.7
20260905031543 77 0 0.0 0.0 0.00 0.00 0.00 87 1014.9
20260905030032 77 0 0.0 0.0 0.00 0.00 0.00 87 1014.9
20260905024534 77 0 0.0 0.0 0.00 0.00 0.00 86 1015.0
20260905023041 78 0 0.0 0.0 0.00 0.00 0.00 86 1015.2
20260905021538 78 0 0.0 0.0 0.00 0.00 0.00 85 1015.2